This is the latest recevied weather packets stored in our database for station/object ZS2JO. If no packets are shown the sender has not sent any weather packets the latest 10 day(s).
| Time | Temp. | Humidity | Pressure | Rain* | Wind** | Luminosity | Snow |
|---|---|---|---|---|---|---|---|
| 1778206621 | 12.78° C | 99% | 1021.3 hPa | 0 mm | - | 0 W/m² | - |
| 1778206316 | 12.78° C | 99% | 1021.3 hPa | 0 mm | - | 0 W/m² | - |
| 1778206014 | 12.78° C | 99% | 1021.2 hPa | 0 mm | - | 0 W/m² | - |
| 1778205712 | 12.78° C | 99% | 1021.4 hPa | 0 mm | - | 0 W/m² | - |
| 1778205409 | 12.78° C | 99% | 1021.3 hPa | 0 mm | - | 0 W/m² | - |
| 1778205106 | 12.78° C | 99% | 1021.5 hPa | 0 mm | - | 0 W/m² | - |
| 1778204802 | 12.78° C | 98% | 1021.3 hPa | 0 mm | - | 0 W/m² | - |
| 1778204498 | 12.78° C | 98% | 1021.4 hPa | 0 mm | - | 0 W/m² | - |
| 1778204195 | 13.33° C | 98% | 1021.2 hPa | 0.51 mm | - | 0 W/m² | - |
| 1778203891 | 13.33° C | 98% | 1021.3 hPa | 0.51 mm | - | 0 W/m² | - |
| 1778203589 | 13.33° C | 98% | 1021.3 hPa | 0 mm | - | 0 W/m² | - |
| 1778203286 | 12.78° C | 97% | 1021.3 hPa | 0 mm | - | 0 W/m² | - |
| 1778202985 | 12.78° C | 97% | 1021.4 hPa | 0.51 mm | - | 0 W/m² | - |
| 1778202682 | 13.33° C | 98% | 1021.4 hPa | 8.38 mm | - | 0 W/m² | - |
| 1778202378 | 13.33° C | 99% | 1021.6 hPa | 10.67 mm | - | 0 W/m² | - |
| 1778202076 | 13.33° C | 98% | 1021.7 hPa | 1.27 mm | - | 0 W/m² | - |
| 1778201772 | 13.33° C | 98% | 1021.5 hPa | 0 mm | - | 0 W/m² | - |
| 1778201469 | 13.33° C | 97% | 1021.5 hPa | 0 mm | - | 0 W/m² | - |
| 1778201165 | 13.89° C | 97% | 1021.5 hPa | 2.29 mm | - | 0 W/m² | - |
| 1778200862 | 13.89° C | 96% | 1021.6 hPa | 3.05 mm | - | 0 W/m² | - |
| 1778200558 | 13.89° C | 95% | 1021.6 hPa | 0 mm | - | 0 W/m² | - |
| 1778200256 | 13.89° C | 95% | 1021.7 hPa | 0 mm | - | 0 W/m² | - |
| 1778199952 | 13.89° C | 95% | 1021.5 hPa | 0 mm | - | 0 W/m² | - |
| 1778199650 | 13.89° C | 95% | 1021.7 hPa | 0 mm | - | 0 W/m² | - |
| 1778199345 | 13.89° C | 95% | 1021.4 hPa | 0 mm | - | 0 W/m² | - |
* Rain latest hour (hover to see other rain measurements)
** Current wind speed in m/s (hover to see current wind gust speed)